Regional Weather Roundup
Issued by NWS Cleveland, OH

Home | Current Version | Previous Version | Graphics & Text | Print | Product List | Glossary On
Versions: 1 2 3 4 5 6 7 8 9 10 11 12 13 14 15 16 17 18 19 20 21 22 23 24 25 26 27 28 29 30 31 32 33 34 35 36 37 38 39 40 41 42 43 44 45 46 47 48 49 50
000
ASUS41 KCLE 201700
RWRCLE
OHIO REGIONAL WEATHER ROUNDUP
NATIONAL WEATHER SERVICE WILMINGTON, OH
100 PM EDT WED AUG 20 2014

NOTE: "FAIR" INDICATES FEW OR NO CLOUDS BELOW 12,000 FEET WITH NO
SIGNIFICANT WEATHER AND/OR OBSTRUCTIONS TO VISIBILITY.

OHZ001>008-015>018-024>027-034-035-043-044-201800-
   NORTHWEST OHIO

CITY           SKY/WX    TMP DP  RH WIND       PRES   REMARKS
DEFIANCE       MOSUNNY   80  65  59 VRB6      29.90S
FINDLAY        MOSUNNY   82  68  62 SW12      29.91R
TOLEDO EXPRESS MOSUNNY   81  67  62 W10       29.89R
TOLEDO METCALF MOSUNNY   81  67  62 SW13      29.89S
LIMA           MOSUNNY   81  68  64 W13       29.93S
$$

OHZ009>014-019>023-028>033-038-089-201800-
   NORTHEAST OHIO

CITY           SKY/WX    TMP DP  RH WIND       PRES   REMARKS
CLE-HOPKINS    MOSUNNY   77  69  76 S12G21    29.91R
CLE-LAKEFRONT  MOSUNNY   80  68  66 SW15G22   29.87R
CUY CO. ARPT   PTSUNNY   81  70  69 S12       29.90R
LORAIN-ELYRIA  PTSUNNY   80  70  71 SW8       29.90S
ASHTABULA      MOSUNNY   77  66  68 SW14G20   29.91R
AKRON-CANTON   PTSUNNY   76  66  71 S14       29.93S
WOOSTER        NOT AVBL
MANSFIELD      PTSUNNY   79  69  71 S9        29.93S
YOUNGSTOWN     PTSUNNY   74  66  76 S9        29.93S
$$

OHZ042-051>053-060>062-070>072-077>081-201800-
  SOUTHWEST OHIO

CITY           SKY/WX    TMP DP  RH WIND       PRES   REMARKS
CINC-COVINGTON MOSUNNY   83  68  60 W8        29.98R
CINC-LUNKEN    SUNNY     83  69  62 SW10      29.96S
HAMILTON       MOSUNNY   84  70  62 W7        29.96S
DAYTON         NOT AVBL
WRIGHT-PAT AFB MOSUNNY   83  68  61 SW12      29.94F
DAYTON GENERAL MOSUNNY   81  68  64 W8        29.95S
WILMINGTON     MOSUNNY   81  69  67 SW12      29.96S
$$

OHZ036-037-039>041-045>050-054>059-063>069-073>076-082>088-201800-
  CENTRAL AND SOUTHEAST OHIO

CITY           SKY/WX    TMP DP  RH WIND       PRES   REMARKS
COLUMBUS       MOSUNNY   83  67  58 S9        29.93S
OSU AIRPORT    PTSUNNY   83  68  60 SW12      29.93S
BOLTON FIELD   PTSUNNY   81  72  74 S9        29.95S
RICKENBACK AFB NOT AVBL
NEWARK         MOSUNNY   79  68  69 S9        29.94S
MARION         PTSUNNY   80  68  66 W9        29.92F
LANCASTER      MOSUNNY   81  68  64 SW8       29.95F
ZANESVILLE     MOSUNNY   80  63  55 SW9       29.95S
NEW PHILLY     CLOUDY    76  69  79 S9        29.95S
$$



USA.gov is the U.S. government's official web portal to all federal, state and local government web resources and services.